BEIDOU-2 G6

Last updated on Sat Apr 26 2025 00:02:41 GMT+0000 (Coordinated Universal Time)

1 38953U 12059A 25115.54725741 -.00000170 00000+0 00000+0 0 9991 2 38953 3.3589 77.8010 0010435 309.3235 107.6868 1.00273687 45727
UTC large
Height (km)
Speed (km/s)
/
Latitude / Longitude
Inclination (degrees)
Orbital Period (minutes)
Azimuth
Elevation
Range (km)
Doppler Factor

Next 0 passes for location: London (51.5072 / 0.1276)

Sorry there are no passes over London.